Regional Weather Roundup
Issued by NWS

Home | Current Version | Previous Version | Graphics & Text | Print | Product List | Glossary On
Versions: 1 2 3 4 5 6 7 8 9 10 11 12 13 14 15 16 17 18 19 20 21 22 23 24 25 26 27 28 29 30 31 32 33 34 35 36 37 38 39 40 41 42 43 44 45 46 47 48 49 50
355
ASUS44 KJAN 210503
RWRMS

MISSISSIPPI HOURLY WEATHER ROUNDUP
NATIONAL WEATHER SERVICE JACKSON MS
1100 PM CST SAT DEC 20 2014

NOTE: "FAIR: INDICATES FEW OR NO CLOUDS BELOW 12,000 FEET WITH NO
SIGNIFICANT WEATHER AND/OR OBSTRUCTIONS TO VISIBILITY.

MSZ001>002-007>008-010>013-018>021-025>028-034>036-210600-
NORTHWEST MISSISSIPPI

CITY           SKY/WX    TMP DP  RH WIND       PRES   REMARKS
CLARKSDALE     FAIR      36  36 100 N6        30.25F WCI  31
CLEVELAND      FAIR      37  36  96 NE5       30.23F WCI  34
GREENWOOD      CLEAR     34  32  92 NE5       30.23R WCI  30
GREENVILLE     CLEAR     40  36  86 N8        30.23S WCI  34
GRENADA        FAIR      34  32  93 CALM      30.25R
OLIVE BRANCH   CLEAR     36  34  93 NE3       30.25F
OXFORD         FAIR      32  32 100 CALM      30.26R
TUNICA         CLEAR     34  32  93 N5        30.26F WCI  30
$$

MSZ003>006-009-014>017-022>024-029>033-037>039-210600-
NORTHEAST MISSISSIPPI

CITY           SKY/WX    TMP DP  RH WIND       PRES   REMARKS
COLUMBUS AFB   CLEAR     35  33  94 NW2       30.23R
CORINTH        FAIR      36  30  80 CALM      30.25S
GOLDN TRIANGLE CLEAR     34  30  86 CALM      30.21S
STARKVILLE     FAIR      34  34 100 CALM      30.22S
TUPELO         CLEAR     34  30  85 NE7       30.24S WCI  28
$$

MSZ040-058-210600-
CENTRAL MISSISSIPPI

CITY           SKY/WX    TMP DP  RH WIND       PRES   REMARKS
JACKSON INTL   CLEAR     41  38  89 NE5       30.20S
JACKSON HAWKNS CLEAR     44  39  82 CALM      30.20S
MERIDIAN KEY   CLEAR     37  35  92 N5        30.19F WCI  33
MERIDIAN NAS   CLEAR     36  34  92 NW3       30.20S
RAYMOND        FAIR      37  32  81 CALM      30.20S FOG
VICKSBURG      CLEAR     43  38  82 NE7       30.21S
$$

MSZ059>079-210600-
SOUTH MISSISSIPPI

CITY           SKY/WX    TMP DP  RH WIND       PRES   REMARKS
HATTIESBURG    CLOUDY    46  44  93 CALM      30.18F
MCCOMB         MOCLDY    43  40  89 CALM      30.17S
NATCHEZ        PTCLDY    43  37  81 CALM      30.21R
PINE BELT      CLOUDY    45  39  81 N5        30.19S
$$

MSZ080>082-210600-
COASTAL MISSISSIPPI

CITY           SKY/WX    TMP DP  RH WIND       PRES   REMARKS
BILOXI         CLOUDY    51  48  90 NE9       30.16R
PASCAGOULA     CLOUDY    51  47  86 NE9       30.16S
GULFPORT       CLOUDY    51  46  83 NE8       30.16R
$$



USA.gov is the U.S. government's official web portal to all federal, state and local government web resources and services.